Weather History for KSTC - March, 2013

Change the Weather History Date:

Monday, March 18, 2013

  Actual Average Record
Temperature  
Mean Temperature 21 °F 30 °F  
Max Temperature 31 °F 40 °F 75 °F (2012)
Min Temperature 10 °F 21 °F -12 °F (1941)
Degree Days  
Heating Degree Days 44 35  
Month to date heating degree days 788 696  
Since 1 July heating degree days 7058 7142  
Cooling Degree Days 0 0  
Month to date cooling degree days 0 0  
Year to date cooling degree days 0 0  
Moisture  
Dew Point 18 °F    
Average Humidity 79    
Maximum Humidity 92    
Minimum Humidity 66    
Precipitation  
Precipitation 0.26 in 0.05 in 1.85 in (1903)
Month to date precipitation 2.19 0.78  
Year to date precipitation 3.97 2.02  
Snow  
Snow 3.20 in 0.30 in 8.80 in (1951)
Month to date snowfall 16.3 5.8  
Since 1 July snowfall 53.8 40.0  
Snow Depth 17.00 in    
Sea Level Pressure  
Sea Level Pressure 29.68 in    
Wind  
Wind Speed 19 mph (SSW)    
Max Wind Speed 22 mph    
Max Gust Speed 36 mph    
Visibility 4 miles    
Events Fog , Rain , Snow    
T = Trace of Precipitation, MM = Missing Value Source: NWS Daily Summary

Daily Weather History Graph

Daily Weather History Graph

Search for Another Location

Airport or City:

Trip Planner

Search our weather history database for the weather conditions in past years. The results will help you decide how hot, cold, wet, or windy it might be!

Date:

Astronomy

Mar. 18, 2013 Rise Set
Actual Time 7:22 AM CDT 7:26 PM CDT
Civil Twilight 6:53 AM CDT 7:56 PM CDT
Nautical Twilight 6:18 AM CDT 8:30 PM CDT
Astronomical Twilight 5:43 AM CDT 9:06 PM CDT
Moon 11:06 AM CDT (3/18) 1:43 AM CDT (3/18)
Length of Visible Light 13h 03m
Length of Day
12h 03m
Waxing Crescent, 41% of the Moon is Illuminated
Mar 18
Waxing Crescent
Mar 19
First Quarter
Mar 27
Full
Apr 2
Last Quarter
Apr 10
New

Hourly Weather History & Observations

Time (CDT) Temp. Windchill Dew Point Humidity Pressure Visibility Wind Dir Wind Speed Gust Speed Precip Events Conditions
12:53 AM 26.1 °F 13.6 °F 18.0 °F 71% 29.81 in 10.0 mi SE 16.1 mph 26.5 mph N/A   Overcast
1:43 AM 26.6 °F 12.7 °F 19.4 °F 74% 29.69 in 1.8 mi SE 20.7 mph 29.9 mph 0.00 in Snow Light Snow
1:53 AM 26.1 °F 12.3 °F 19.9 °F 78% 29.76 in 1.5 mi SE 19.6 mph 27.6 mph 0.00 in Snow Light Snow
2:07 AM 26.6 °F 13.4 °F 21.2 °F 80% 29.69 in 3.0 mi SE 18.4 mph 25.3 mph 0.00 in Snow Light Snow
2:22 AM 26.6 °F 13.1 °F 21.2 °F 80% 29.69 in 1.8 mi SSE 19.6 mph 27.6 mph 0.00 in Snow Light Snow
2:29 AM 26.6 °F 13.1 °F 21.2 °F 80% 29.69 in 0.8 mi SSE 19.6 mph 27.6 mph 0.01 in Snow Light Snow
2:40 AM 26.6 °F 13.8 °F 23.0 °F 86% 29.69 in 0.5 mi SSE 17.3 mph 25.3 mph 0.02 in Fog , Snow Snow
2:53 AM 26.1 °F 13.6 °F 23.0 °F 88% 29.76 in 0.2 mi SSE 16.1 mph - 0.05 in Fog , Snow Heavy Snow
3:07 AM 26.6 °F 14.3 °F 24.8 °F 93% 29.68 in 0.2 mi SE 16.1 mph - 0.04 in Fog , Snow Heavy Snow
3:53 AM 27.0 °F 14.7 °F 24.1 °F 89% 29.72 in 0.5 mi SE 16.1 mph - 0.14 in Fog , Snow Snow
4:19 AM 26.6 °F 14.3 °F 24.8 °F 93% 29.64 in 0.8 mi SSE 16.1 mph - 0.02 in Snow Light Snow
4:32 AM 26.6 °F 14.3 °F 24.8 °F 93% 29.63 in 0.8 mi SSE 16.1 mph - 0.03 in Snow Light Snow
4:53 AM 27.0 °F 14.7 °F 25.0 °F 92% 29.69 in 0.8 mi SE 16.1 mph - 0.05 in Snow Light Snow
5:02 AM 28.4 °F 16.6 °F 24.8 °F 86% 29.61 in 1.5 mi SE 16.1 mph - 0.01 in Snow Light Snow
5:12 AM 28.4 °F 16.6 °F 24.8 °F 86% 29.61 in 2.0 mi SE 16.1 mph - 0.01 in Snow Light Snow
5:37 AM 28.4 °F 17.0 °F 26.6 °F 93% 29.60 in 1.8 mi SE 15.0 mph 20.7 mph 0.01 in Snow Light Snow
5:53 AM 28.0 °F 15.7 °F 26.1 °F 92% 29.65 in 1.8 mi SSE 17.3 mph - 0.01 in   Overcast
6:02 AM 28.4 °F 17.0 °F 26.6 °F 93% 29.58 in 2.0 mi SSE 15.0 mph - 0.00 in Rain Light Freezing Rain
6:19 AM 28.4 °F 17.5 °F 26.6 °F 93% 29.58 in 2.0 mi SSE 13.8 mph - 0.00 in Snow Light Snow
6:53 AM 28.9 °F 16.9 °F 26.1 °F 89% 29.63 in 2.5 mi SSE 17.3 mph - 0.01 in Snow Light Snow
7:03 AM 28.4 °F 16.6 °F 26.6 °F 93% 29.55 in 3.0 mi SSE 16.1 mph - 0.00 in   Overcast
7:30 AM 28.4 °F 17.0 °F 26.6 °F 93% 29.55 in 2.5 mi SSE 15.0 mph - 0.00 in Rain Light Freezing Rain
7:53 AM 30.0 °F 20.0 °F 28.0 °F 92% 29.62 in 2.0 mi South 12.7 mph 20.7 mph 0.00 in Rain Light Freezing Rain
8:00 AM 30.2 °F 18.1 °F 28.4 °F 93% 29.55 in 3.0 mi South 18.4 mph 28.8 mph 0.00 in Snow Light Snow
8:13 AM 30.2 °F 19.3 °F 26.6 °F 86% 29.55 in 3.0 mi WSW 15.0 mph - 0.00 in   Overcast
8:21 AM 28.4 °F 16.2 °F 26.6 °F 93% 29.55 in 3.0 mi WSW 17.3 mph 24.2 mph 0.00 in   Overcast
8:53 AM 26.1 °F 13.6 °F 21.9 °F 84% 29.62 in 4.0 mi WSW 16.1 mph - 0.00 in   Overcast
9:53 AM 19.9 °F 3.5 °F 15.1 °F 81% 29.65 in 5.0 mi WSW 21.9 mph 28.8 mph 0.00 in   Haze
10:02 AM 19.4 °F 5.5 °F 14.0 °F 80% 29.59 in 10.0 mi West 15.0 mph - N/A   Overcast
10:53 AM 19.0 °F 2.4 °F 12.0 °F 74% 29.68 in 8.0 mi West 21.9 mph 26.5 mph 0.00 in Snow Light Snow
11:53 AM 17.1 °F -0.3 °F 9.0 °F 71% 29.68 in 6.0 mi West 21.9 mph 29.9 mph 0.00 in   Overcast
12:53 PM 17.1 °F 0.1 °F 8.1 °F 68% 29.70 in 4.0 mi West 20.7 mph 31.1 mph 0.00 in Snow Light Snow
1:53 PM 17.1 °F 0.1 °F 8.1 °F 68% 29.69 in 7.0 mi West 20.7 mph 28.8 mph 0.00 in Snow Light Snow
2:53 PM 18.0 °F 2.6 °F 9.0 °F 68% 29.69 in 5.0 mi West 17.3 mph 32.2 mph 0.00 in Snow Light Snow
3:53 PM 17.1 °F 0.1 °F 8.1 °F 68% 29.70 in 8.0 mi West 20.7 mph 31.1 mph 0.00 in   Overcast
4:53 PM 19.0 °F 2.7 °F 9.0 °F 65% 29.72 in 5.0 mi WNW 20.7 mph 28.8 mph 0.00 in Snow Light Snow
5:53 PM 18.0 °F 1.7 °F 9.0 °F 68% 29.73 in 9.0 mi WNW 19.6 mph - 0.00 in Snow Light Snow
6:40 PM 17.6 °F 1.3 °F 8.6 °F 68% 29.67 in 4.0 mi West 19.6 mph 31.1 mph 0.00 in Snow Light Snow
6:53 PM 17.1 °F 0.1 °F 9.0 °F 71% 29.75 in 4.0 mi WNW 20.7 mph 31.1 mph 0.00 in Snow Light Snow
7:40 PM 15.8 °F -3.1 °F 6.8 °F 68% 29.71 in 6.0 mi WNW 25.3 mph 31.1 mph 0.00 in Snow Light Snow
7:53 PM 15.1 °F -1.6 °F 6.1 °F 68% 29.78 in 8.0 mi WNW 18.4 mph 29.9 mph 0.00 in   Overcast
8:53 PM 14.0 °F -3.0 °F 5.0 °F 67% 29.82 in 10.0 mi WNW 18.4 mph 31.1 mph N/A   Overcast
9:53 PM 12.9 °F -5.7 °F 3.9 °F 67% 29.86 in 10.0 mi WNW 21.9 mph 31.1 mph N/A   Mostly Cloudy
10:24 PM 12.2 °F -5.3 °F 3.2 °F 67% 29.78 in 10.0 mi WNW 18.4 mph 28.8 mph N/A   Scattered Clouds
10:53 PM 10.9 °F -7.5 °F 3.0 °F 70% 29.88 in 10.0 mi WNW 19.6 mph - N/A   Partly Cloudy
11:53 PM 10.0 °F -9.1 °F 1.9 °F 70% 29.89 in 10.0 mi WNW 20.7 mph 31.1 mph N/A   Clear